STARLINK-11123, 59948

Orbit data source: Space-Track

STARLINK-11123, 59948 is a payload satellite owned by SpaceX/Seattle (US) in LEO that was launched on Wed, 05 Jun 2024 UTC via an FALCON 9 launch vehicle from the Air Force Eastern Test Range (AFETR). Payload-class satellites include a variety of spacecraft equipped with specific instruments for various scientific and technological missions. These include communications satellites like Starlink; space stations such as the ISS; scientific satellites like the Hubble; Earth observation satellites from companies like Planet Labs, Umbra, and HawkEye 360; GPS; miniature CubeSats for education and research; and military/defense satellites.

Loading next visibility...
Identifier
59948, 2024-107D
Orbit
LEO
Last TLE update
9 hours ago
Origin
Manufacturer
SpaceX/Seattle
Mission
Operational spacecraft
Bus & Motor
STARLINK V2M, Unknown motor
Mass
730 kg wet, ~700 kg dry
Launch date (UTC)
2024-06-05 (1 year ago)
Launch vehicle
FALCON 9
Launch site
Air Force Eastern Test Range (AFETR)
Object type
Payload
Rocket body
Debris
Shape & HBR
Unknown
Radar Cross Section
Large (>1 m²)

Expand to show TLE details & history

TLE from 9 hours ago
0 STARLINK-11123
1 59948U 24107D   25182.07090924  .00001790  00000-0  19644-4 0  9993
2 59948  53.1591  51.8558 0000807  86.0337 274.0773 15.69690218 62695
Epoch: 2025-07-01T01:42Z
TLE epoch observation values (Epoch: 2025-07-01T01:42:06.558Z)
Latitude
-0.00002°
Longitude
106.95682°
Altitude
360.66 km
Speed
7.694 km/s
True Right ascension
03h 27m 25s
True Declination
0° 00' 00"
Sunlit
Object was in daylight at epoch
Visualization orbit readout
Latitude
-48.87924°
Longitude
46.55038°
Altitude
377.066 km
Speed
7.683 km/s
Apparent Right ascension
05h 55m 52s
Apparent Declination
-80° 23' 50"
Sunlit
Object is in full shadow
Visualization observer readout
Local Sidereal Time
22:12:52
Azimuth
168.047° S
Elevation
-43.492°
Doppler factor
1
Orbital elements
Apogee altitude
360.588 km
Perigee altitude
359.5 km
Semi-major axis
6,738.181 km
Eccentricity
0.00008
Inclination
53.1591°
RAAN
51.8558°
Arg. of periapsis
86.0337°
True anomaly
Unknown
Mean anomaly
274.0773°
Eccentric anomaly
Unknown
Mean motion
3.924 °/min
Orbital period
91.74 mins
BSTAR
0.000019644
Loading maneuver chart data...
Loading SW <> Apogee altitude chart data...
Loading historical data...
Loading historical data...
Loading historical data...
Loading historical data...
Loading historical data...
Loading historical data...
Loading historical data...

STARLINK-11123 Visibility forecast

Observer location: undefined°, undefined°

Span
Click to sort rows by Start time (UTC) header in descending order
Start Az.
Max El. time (UTC)
Max El. Az.
Max El.
End time (UTC)
End Az.
4 mins2025-07-01 17:08:24.219Z174.867° S2025-07-01 17:10:24.219Z131.213° SE17.073°2025-07-01 17:12:24.219Z86.567° E
|